, FL

(GMT )
Whiting Fld NAS

Weather History for KNSE - January, 2012

Change the Weather History Date:

Thursday, January 12, 2012

  Actual Average Record
Temperature  
Mean Temperature 56 °F -  
Max Temperature 70 °F 59 °F 78 °F (2013)
Min Temperature 39 °F 40 °F 27 °F (1997)
Degree Days  
Heating Degree Days 9    
Growing Degree Days 6 (Base 50)    
Moisture  
Dew Point 43 °F    
Average Humidity 71    
Maximum Humidity 100    
Minimum Humidity 40    
Precipitation  
Precipitation 0.00 in - - ()
Sea Level Pressure  
Sea Level Pressure 29.85 in    
Wind  
Wind Speed 9 mph (West)    
Max Wind Speed 21 mph    
Max Gust Speed 34 mph    
Visibility 9 miles    
Events      
Averages and records for this station are not official NWS values.
T = Trace of Precipitation, MM = Missing Value Source: NWS Daily Summary

Daily Weather History Graph

Daily Weather History Graph

Search for Another Location

Airport or City:

Trip Planner

Search our weather history database for the weather conditions in past years. The results will help you decide how hot, cold, wet, or windy it might be!

Date:

Astronomy

Jan. 12, 2012 Rise Set
Actual Time 6:46 AM CST 5:06 PM CST
Civil Twilight 6:20 AM CST 5:32 PM CST
Nautical Twilight 5:50 AM CST 6:02 PM CST
Astronomical Twilight 5:21 AM CST 6:31 PM CST
Moon 8:51 PM CST (1/12) 8:47 AM CST (1/12)
Length of Visible Light 11h 11m
Length of Day
10h 19m
Waning Gibbous, 87% of the Moon is Illuminated
Jan 12
Waning Gibbous
Jan 16
Last Quarter
Jan 23
New
Jan 30
First Quarter
Feb 7
Full

Hourly Weather History & Observations

Time (CST) Temp. Windchill Dew Point Humidity Pressure Visibility Wind Dir Wind Speed Gust Speed Precip Events Conditions
12:56 AM 51.1 °F - 48.9 °F 92% 29.78 in 10.0 mi WSW 4.6 mph - N/A   Clear
1:56 AM 51.1 °F - 50.0 °F 96% 29.77 in 8.0 mi SW 4.6 mph - N/A   Clear
2:56 AM 50.0 °F - 48.9 °F 96% 29.78 in 6.0 mi SW 4.6 mph - N/A   Clear
3:56 AM 48.0 °F - 46.9 °F 96% 29.77 in 7.0 mi South 4.6 mph - N/A   Clear
4:56 AM 48.0 °F - 48.0 °F 100% 29.77 in 7.0 mi South 4.6 mph - N/A   Clear
5:56 AM 48.9 °F - 48.0 °F 97% 29.78 in 8.0 mi SSW 3.5 mph - N/A   Clear
6:10 AM 48.2 °F - 48.2 °F 100% 29.81 in 10.0 mi SW 4.6 mph - N/A   Partly Cloudy
6:56 AM 50.0 °F - 48.0 °F 93% 29.78 in 10.0 mi SSW 4.6 mph - N/A   Scattered Clouds
7:56 AM 57.0 °F - 55.0 °F 93% 29.78 in 10.0 mi SSW 6.9 mph - N/A   Scattered Clouds
8:56 AM 64.0 °F - 59.0 °F 84% 29.78 in 10.0 mi SSW 11.5 mph - N/A   Mostly Cloudy
9:56 AM 69.1 °F - 57.9 °F 68% 29.76 in 10.0 mi SSW 18.4 mph 25.3 mph N/A   Mostly Cloudy
10:56 AM 70.0 °F - 57.0 °F 63% 29.74 in 10.0 mi WSW 20.7 mph 34.5 mph N/A   Mostly Cloudy
11:56 AM 70.0 °F - 55.0 °F 59% 29.73 in 10.0 mi West 17.3 mph 27.6 mph N/A   Mostly Cloudy
12:56 PM 68.0 °F - 51.1 °F 55% 29.75 in 10.0 mi West 20.7 mph 28.8 mph N/A   Mostly Cloudy
1:56 PM 61.0 °F - 48.9 °F 64% 29.79 in 10.0 mi WNW 18.4 mph 26.5 mph N/A   Mostly Cloudy
2:56 PM 59.0 °F - 44.1 °F 58% 29.83 in 10.0 mi NNW 15.0 mph 23.0 mph N/A   Mostly Cloudy
3:56 PM 55.9 °F - 41.0 °F 57% 29.86 in 10.0 mi NW 17.3 mph 21.9 mph N/A   Scattered Clouds
4:56 PM 52.0 °F - 35.1 °F 53% 29.88 in 10.0 mi NW 15.0 mph 23.0 mph N/A   Scattered Clouds
5:56 PM 48.9 °F - 36.0 °F 61% 29.92 in 10.0 mi NW 9.2 mph - N/A   Scattered Clouds
6:56 PM 46.9 °F - 30.9 °F 54% 29.96 in 10.0 mi WNW 9.2 mph - N/A   Mostly Cloudy
7:56 PM 48.0 °F - 27.0 °F 44% 29.99 in 10.0 mi NW 13.8 mph 21.9 mph N/A   Mostly Cloudy
8:56 PM 46.9 °F - 28.0 °F 48% 30.02 in 10.0 mi NNW 9.2 mph 18.4 mph N/A   Mostly Cloudy
9:56 PM 44.1 °F 39.5 °F 26.1 °F 49% 30.05 in 10.0 mi NNW 8.1 mph - N/A   Mostly Cloudy
10:56 PM 42.1 °F 35.2 °F 19.0 °F 40% 30.09 in 10.0 mi NW 12.7 mph 18.4 mph N/A   Scattered Clouds
11:56 PM 39.0 °F 33.4 °F 21.0 °F 49% 30.10 in 10.0 mi NNW 8.1 mph - N/A   Clear